Tracking 31027 objects as of 19-Jul-2025
HD Live streaming from Space Station
objects crossing your sky now

TRANSIT 2A

Track TRANSIT 2A now!
10-day predictions
TRANSIT 2A is classified as:


NORAD ID: 45
Int'l Code: 1960-007A
Perigee: 605.4 km
Apogee: 955.2 km
Inclination: 66.7 °
Period: 100.3 minutes
Semi major axis: 7151 km
RCS: 0.4368 m2 (medium)
Launch date: June 22, 1960
Source: United States (US)
Launch site: AIR FORCE EASTERN TEST RANGE (AFETR)
Your satellite tracking list
SL-14 DEB
Track 1 satellite(s)




NASA's NSSDC Master Catalog

Two Line Element Set (TLE):
1 00045U 60007A   25199.36052651  .00000417  00000-0  12910-3 0  9994
2 00045  66.6927 162.9741 0244579  41.5060 320.4329 14.35578861332126
Source of the keplerian elements: AFSPC